Retour au catalogue

ONEWEB-0282

ActifCommunicationsPO
NORAD 49000·PAYLOAD·🇬🇧 United Kingdom

Lancé Jul 1, 2021 depuis Vostochny Cosmodrome

Loading…

Prochains Passages (prochaines 24 heures)

TLE

FraisSource: CelesTrak SupGP

Époque: Sep 14, 2026, 15:04 UTC

1 49000C 21060AK  26257.62827963  .00000564  00000+0  14780-2 0  2570
2 49000  87.9156 211.0197 0002033  76.0654 319.2181 13.16595991    13

Suivez ONEWEB-0282 en temps réel avec AllMySat

Download on the App Store